Probability
0 0 0 0 0 0 0 0 0 0 0 0 0 0 0 0 0 0 0 0 0 0 0 1 3 7 10 10 11 11 12 12 12 9 4 1 0 0 0 0 0 0 0 0
0 0 0 0 0 0 0 0 0 0 0 0 0 0 0 0 0 0 0 0 0 0 0 0 2 5 8 10 10 10 11 12 12 10 6 2 0 0 0 0 0 0 0 0
0 0 0 0 0 0 0 0 0 0 0 0 0 0 0 0 0 0 0 0 0 0 0 0 0 2 6 8 9 10 10 11 12 11 8 2 0 0 0 0 0 0 0 0
0 0 0 0 0 0 0 0 0 0 0 0 0 0 0 0 0 0 0 0 0 0 0 0 0 1 4 7 9 9 9 9 11 12 9 3 0 0 0 0 0 0 0 0
0 0 0 0 0 0 0 0 0 0 0 0 0 0 0 0 0 0 0 0 0 0 0 0 0 1 4 6 6 7 7 8 9 10 8 4 1 0 0 0 0 0 0 0
0 0 0 0 0 0 0 0 0 0 0 0 0 0 0 0 0 0 0 0 0 0 0 0 0 1 3 5 5 5 6 6 7 8 7 5 2 0 0 0 0 0 0 0
0 0 0 0 0 0 0 0 0 0 0 0 0 0 0 0 0 0 0 0 0 0 0 0 0 0 2 4 4 4 5 5 5 5 5 5 3 0 0 0 0 0 0 0
0 0 0 0 0 0 0 0 0 0 0 0 0 0 0 0 0 0 0 0 0 0 0 0 0 0 1 3 4 4 5 5 3 2 3 3 2 0 0 0 0 0 0 0
0 0 0 0 0 0 0 0 0 0 0 0 0 0 0 0 0 0 0 0 0 0 0 0 0 0 0 1 3 4 5 5 4 2 2 1 1 0 0 0 0 0 0 0
0 0 0 0 0 0 0 0 0 0 0 0 0 0 0 0 0 0 0 0 0 0 0 0 0 0 0 1 2 3 5 5 4 3 1 1 0 0 0 0 0 0 0 0
0 0 0 0 0 0 0 0 0 0 0 0 0 0 0 0 0 0 0 0 0 0 0 0 0 0 0 0 1 2 4 5 5 4 2 1 1 1 0 0 0 0 0 0
0 0 0 0 0 0 0 0 0 0 0 0 0 0 0 0 0 0 0 0 0 0 0 0 0 0 0 0 1 2 3 4 5 4 3 3 2 1 0 0 0 0 0 0
0 0 0 0 0 0 0 0 0 0 0 0 0 0 0 0 0 0 0 0 0 0 0 0 0 0 0 0 1 2 3 3 4 4 3 4 4 2 1 0 0 0 0 0
0 0 0 0 0 0 0 0 0 0 0 0 0 0 0 0 0 0 0 0 0 0 0 0 0 0 0 0 0 1 2 3 4 4 4 5 5 4 2 1 0 0 0 0
0 0 0 0 0 0 0 0 0 0 0 0 0 0 0 0 0 0 0 0 0 0 0 0 0 0 0 0 0 0 1 2 4 4 4 5 6 4 3 2 1 0 0 0
0 0 0 0 0 0 0 0 0 0 0 0 0 0 0 0 0 0 0 0 0 0 0 0 0 0 0 0 0 0 0 2 3 4 3 4 6 5 4 2 1 0 0 0
0 0 0 0 0 0 0 0 0 0 0 0 0 0 0 0 0 0 0 0 0 0 0 0 0 0 0 0 0 0 1 2 3 3 2 3 5 5 3 1 0 0 0 0
0 0 0 0 0 0 0 0 0 0 0 0 0 0 0 0 0 0 0 0 0 0 0 0 0 0 0 0 1 1 2 3 3 2 1 2 3 4 2 1 0 0 0 0
0 0 0 0 0 0 0 0 0 0 0 0 0 0 0 0 0 0 0 0 0 0 0 0 0 0 0 1 2 3 3 3 3 1 0 1 1 1 1 0 0 0 0 0
0 0 0 0 0 0 0 0 0 0 0 0 0 0 0 0 0 0 0 0 0 0 0 0 0 0 1 2 3 3 3 3 2 1 0 0 0 0 0 0 0 0 0 0
0 0 0 0 0 0 0 0 0 0 0 0 0 0 0 0 0 0 0 0 0 0 0 0 0 0 1 2 2 2 2 2 1 0 0 0 0 0 0 0 0 0 0 0
0 0 0 0 0 0 0 0 0 0 0 0 0 0 0 0 0 0 0 0 0 0 0 0 0 0 0 1 1 1 1 1 0 0 0 0 0 0 1 1 0 0 0 0
0 0 0 0 0 0 0 0 0 0 0 0 0 0 0 0 0 0 0 0 0 0 0 0 0 0 0 0 0 0 0 0 0 0 0 0 0 0 1 2 1 0 0 0
0 0 0 0 0 0 0 0 0 0 0 0 0 0 0 0 0 0 0 0 0 0 0 0 0 0 0 0 0 0 0 0 0 0 0 0 0 0 1 1 1 0 0 0
0 0 0 0 0 0 0 0 0 0 0 0 0 0 0 0 0 0 0 0 0 0 0 0 0 0 0 0 0 0 0 0 0 0 0 0 0 0 0 0 0 0 0 0
0 0 0 0 0 0 0 0 0 0 0 0 0 0 0 0 0 0 0 0 0 0 0 0 0 0 0 0 0 0 0 0 0 0 0 0 0 0 0 0 0 0 0 0
Wind_Speed
1 2 6 8 9 9 7 8 10 11 7 7 12 15 15 10 9 9 10 10 11 13 12 10 11 11 11 12 14 15 16 16 14 11 11 11 10 9 8 8 9 10 10 10
1 6 9 7 6 8 9 11 12 10 7 7 11 16 14 11 12 12 12 12 12 11 8 9 10 11 14 15 16 16 17 17 17 13 11 8 8 6 6 7 9 11 11 11
6 6 4 5 6 7 9 9 9 10 10 7 8 11 11 9 10 10 10 12 11 13 12 11 12 13 13 15 17 16 18 18 18 15 9 7 6 5 6 9 9 11 12 11
5 5 5 6 8 7 9 7 9 10 7 5 2 7 8 7 9 10 10 10 11 12 11 10 11 12 14 16 16 16 17 17 17 16 14 15 12 11 12 9 8 9 11 12
5 4 5 7 7 6 6 5 6 8 6 6 4 6 9 5 8 9 9 10 10 10 10 11 12 13 14 14 14 15 16 17 17 18 18 17 14 10 7 7 10 10 10 11
7 5 4 5 5 5 4 3 5 4 2 6 6 6 8 5 7 6 7 8 9 8 9 9 9 10 11 11 11 13 15 17 17 18 19 19 17 13 11 11 12 10 8 9
7 5 3 3 4 3 1 0 2 2 2 6 4 6 9 6 6 7 7 7 7 6 7 8 7 9 10 10 12 13 15 17 18 19 19 20 19 17 16 14 13 11 9 9
5 7 4 2 2 3 2 3 2 2 3 4 3 7 8 6 5 5 5 4 4 5 6 7 8 9 10 11 12 13 15 17 18 19 19 18 17 14 12 13 12 13 11 11
4 7 5 5 4 2 2 3 2 2 3 4 5 6 8 4 4 4 5 5 5 5 5 6 7 8 10 11 13 15 16 16 17 18 18 17 17 15 14 13 12 10 9 9
3 8 7 6 3 3 3 1 1 1 3 5 5 5 4 5 5 6 6 6 8 7 6 5 6 7 8 10 11 13 15 16 16 17 17 14 16 16 14 12 14 13 12 11
2 4 7 4 2 3 1 1 2 2 3 3 5 6 3 2 4 6 7 8 8 8 7 6 6 6 6 7 8 11 13 13 13 15 15 14 14 14 13 13 14 13 12 12
2 3 6 7 6 2 2 2 2 2 4 4 5 8 3 3 4 6 9 9 9 8 7 5 5 4 4 6 7 9 11 12 13 14 14 14 13 13 13 14 13 13 13 13
3 2 5 7 4 3 2 2 2 3 3 5 6 9 4 8 9 9 10 10 10 9 8 6 5 4 4 5 6 7 9 11 11 11 12 13 13 14 14 14 13 13 13 12
5 4 6 8 7 4 7 7 5 4 6 7 10 14 14 13 13 12 11 10 9 9 8 7 6 5 4 4 5 6 7 9 9 10 12 13 14 14 14 13 12 13 13 13
1 5 7 11 12 10 12 13 11 11 10 11 11 13 15 12 11 10 10 10 11 11 10 8 7 5 4 4 4 5 6 7 9 10 11 13 12 11 11 11 11 12 12 12
2 5 5 9 9 10 15 16 14 14 12 14 15 17 11 9 7 7 8 8 10 11 10 10 8 7 5 5 4 4 6 7 8 10 11 10 10 11 12 12 12 12 12 11
3 3 4 7 6 7 10 9 10 8 7 8 12 12 8 8 9 7 6 7 9 10 10 10 8 7 6 5 4 4 6 6 8 9 9 10 11 12 12 12 12 12 12 12
6 4 4 5 4 8 8 3 5 8 9 8 9 9 8 9 8 5 4 5 8 9 9 9 8 7 6 5 4 3 4 6 8 8 8 9 10 11 11 12 13 12 10 11
10 6 4 3 5 10 8 4 3 5 7 6 8 9 8 7 5 4 4 5 7 8 8 8 7 6 6 4 3 2 4 5 7 8 9 10 11 11 12 12 12 10 10 10
6 6 5 4 5 8 6 4 3 2 6 4 4 7 6 5 5 7 8 8 9 9 8 7 6 4 4 4 2 2 4 5 7 8 8 9 10 11 12 12 11 9 9 9
2 4 7 8 8 10 7 5 1 1 6 5 4 6 5 3 6 8 9 9 9 8 8 6 5 4 4 3 1 2 3 5 5 5 6 8 9 10 11 10 9 10 9 10
6 5 6 5 7 11 3 1 3 6 5 5 6 6 6 7 8 8 8 9 10 9 8 6 5 5 5 2 1 1 2 2 4 5 6 7 8 8 9 11 10 10 11 11
8 9 6 8 9 6 3 5 6 4 5 6 6 7 7 8 8 9 9 9 9 9 8 6 5 5 5 3 1 2 2 2 4 6 7 7 8 8 10 11 12 10 10 9
6 4 5 7 10 8 7 6 6 6 7 8 8 8 7 9 9 9 9 9 9 9 7 6 5 5 5 3 2 2 2 3 4 6 7 7 8 8 8 8 9 9 10 9
7 4 5 9 9 8 7 7 7 8 8 9 9 8 7 8 9 9 9 9 9 8 7 5 5 5 5 3 3 2 3 4 5 6 7 7 7 8 8 7 6 8 7 10
8 8 8 10 8 7 8 7 8 9 9 9 9 10 9 8 10 10 9 8 8 8 7 6 6 5 5 3 3 3 3 4 6 6 7 6 6 6 7 7 6 6 7 10
Wind_Direction
229 227 237 233 227 246 264 269 269 273 278 271 264 267 270 267 250 242 239 235 233 231 225 211 204 198 194 195 194 195 191 185 180 180 181 181 185 183 183 182 179 178 176 173
311 252 249 253 255 260 260 268 272 282 276 272 269 269 268 257 247 236 235 234 232 235 226 210 201 198 196 197 197 197 196 190 186 188 186 184 176 177 179 179 182 184 181 178
237 261 278 270 262 262 260 251 260 272 296 274 273 276 255 251 246 242 237 236 234 228 224 214 203 200 197 199 199 199 199 194 191 184 174 162 156 156 175 188 190 189 185 182
265 269 282 278 264 255 271 245 256 272 281 278 258 283 272 251 249 245 237 233 233 232 225 216 207 202 202 204 200 200 199 196 192 184 181 180 184 190 194 187 186 183 185 184
277 273 274 269 267 251 251 257 259 262 264 277 241 253 277 243 245 244 235 228 230 227 218 212 209 207 208 205 200 199 198 196 193 190 188 188 193 195 176 168 176 183 186 187
263 264 259 258 282 266 264 301 284 265 238 256 226 219 274 235 230 245 237 232 229 222 216 215 213 208 211 205 202 198 196 197 193 193 192 193 194 186 174 177 183 186 186 188
316 300 279 274 305 304 257 31 325 326 237 248 223 224 253 251 244 238 240 240 233 225 221 220 215 210 212 207 203 199 197 199 195 195 197 197 196 191 189 186 187 184 185 190
324 310 304 296 261 277 247 190 214 246 241 281 253 237 254 261 264 266 265 269 270 252 232 224 217 215 215 212 206 200 199 200 196 197 200 200 196 194 195 190 187 189 192 192
312 295 303 293 268 233 260 221 225 267 284 268 257 273 294 293 315 320 320 316 294 277 257 243 233 222 218 213 207 203 201 201 197 198 199 199 197 196 196 190 187 189 187 180
265 287 294 301 297 230 222 208 120 232 264 263 267 260 265 311 316 333 337 328 310 296 279 263 252 236 228 219 210 205 203 202 198 195 197 198 197 197 194 187 189 189 184 177
265 276 300 324 286 262 242 226 209 236 253 264 281 274 235 279 334 336 328 328 320 311 294 282 272 251 236 222 208 204 203 201 199 196 195 194 195 193 189 190 191 188 181 178
277 263 278 270 262 261 231 227 185 238 266 250 270 273 292 349 347 339 332 331 328 320 310 302 289 270 243 221 209 204 201 199 199 195 192 192 191 187 188 191 189 184 181 181
297 282 310 324 335 357 309 266 237 246 258 245 249 268 307 338 339 334 331 335 337 335 329 323 312 299 271 238 218 208 203 198 196 189 187 187 186 186 190 191 186 182 180 177
287 235 222 245 258 275 282 278 265 243 245 253 246 273 296 317 323 327 332 334 335 337 333 325 314 305 292 263 228 211 206 196 187 183 184 186 188 189 189 185 181 180 178 176
249 254 248 258 265 264 263 269 264 247 242 249 262 270 283 301 308 315 323 331 337 338 338 333 324 314 305 289 253 214 205 194 182 180 184 188 186 182 177 176 177 176 176 177
248 264 277 275 267 266 268 263 257 252 248 250 265 273 276 286 300 310 320 329 331 331 333 331 327 322 312 298 272 228 204 192 181 181 185 178 172 172 174 175 173 171 173 171
240 245 277 276 299 300 266 247 240 241 237 237 253 266 295 301 306 306 309 318 318 321 326 327 319 313 308 297 276 236 205 186 180 179 177 172 170 172 174 170 170 172 172 169
221 220 246 279 318 260 251 243 237 244 252 247 260 278 290 290 292 286 289 309 315 319 323 321 315 313 313 304 286 240 193 178 175 172 172 172 171 171 169 169 173 171 167 169
208 210 230 250 264 273 283 275 244 245 267 261 260 279 294 306 309 290 302 311 305 305 309 306 302 301 308 306 289 209 180 173 174 176 176 174 171 169 168 171 172 164 161 163
198 208 222 230 251 259 268 289 293 265 274 293 287 295 307 335 319 300 314 313 310 311 312 311 313 316 319 310 287 179 174 175 184 186 180 173 170 169 170 169 163 156 156 157
191 213 225 233 246 264 269 292 9 197 270 308 300 300 310 282 264 289 307 309 308 310 312 317 322 320 310 301 268 190 182 194 190 175 167 166 167 167 163 157 153 151 147 145
200 208 217 214 230 252 266 200 208 244 279 291 291 290 290 286 290 299 303 305 310 314 317 317 320 316 313 305 250 218 213 198 168 160 160 162 159 155 152 148 148 148 146 146
211 205 207 212 231 254 239 233 254 265 277 282 282 284 289 292 294 300 302 304 307 307 306 304 303 308 313 312 274 243 240 161 157 157 159 156 151 151 153 152 151 149 150 151
249 218 221 252 259 265 268 268 274 274 275 285 287 288 296 293 293 298 300 301 302 304 298 295 297 298 301 312 302 247 213 168 158 160 159 154 151 151 152 151 154 156 159 157
226 217 231 252 267 281 269 257 268 281 284 287 289 285 284 289 290 290 292 294 296 299 290 280 274 277 281 293 296 255 196 166 163 160 158 156 153 151 149 148 154 159 166 168
204 206 220 246 244 249 269 273 278 282 283 285 288 290 287 281 287 288 286 286 288 291 286 279 273 270 272 277 275 254 199 171 168 164 160 157 153 149 146 138 118 109 138 149